Terminal Aerodrome Forecast
Issued by NWS Topeka, KS

Home | Current Version | Previous Version | Graphics & Text | Print | Product List | Glossary On
Versions: 1 2 3 4 5 6 7 8 9 10 11 12 13 14 15
000
FTUS43 KTOP 171100
TAFTOP
TAF
KTOP 171127Z 1712/1812 34010KT P6SM BKN100
      TEMPO 1712/1714 BKN020
     FM171800 02006KT P6SM VCSH BKN090
     FM180000 12003KT P6SM SKC=

USA.gov is the U.S. government's official web portal to all federal, state and local government web resources and services.